FW1194 Weather Reports


Display with metric or nautical units.
time (UTC)temp
F
wind
direction
speed
MPH
gust
MPH
rain 1hr
in
rain 24hr
in
rain mn
in
humidity
%
barometer
mb
20260903044236 80 203 2.0 3.0 0.00 0.00 0.00 83 1012.5
20260903043216 81 180 2.0 3.0 0.00 0.00 0.00 82 1012.6
20260903042216 81 203 1.0 2.0 0.00 0.00 0.00 81 1012.5
20260903041216 81 180 2.0 3.0 0.00 0.00 0.00 81 1012.6
20260903040216 81 225 2.0 4.0 0.00 0.00 0.00 80 1012.6
20260903035215 81 225 2.0 3.0 0.00 0.00 0.00 80 1012.5
20260903034216 82 248 2.0 3.0 0.00 0.00 0.00 80 1012.5
20260903033216 82 203 3.0 4.0 0.00 0.00 0.00 80 1012.5
20260903032215 82 225 2.0 3.0 0.00 0.00 0.00 80 1012.3
20260903031236 81 225 3.0 4.0 0.00 0.00 0.00 80 1012.4
20260903030236 82 225 1.0 2.0 0.00 0.00 0.00 78 1012.4
20260903025215 82 293 1.0 1.0 0.00 0.00 0.00 77 1012.4
20260903024216 83 0.0 0.0 0.00 0.00 0.00 75 1012.4
20260903023216 84 0.0 0.0 0.00 0.00 0.00 74 1012.3
20260903022215 84 0.0 0.0 0.00 0.00 0.00 73 1012.4
20260903021216 85 0.0 0.0 0.00 0.00 0.00 72 1012.3
20260903020217 85 0.0 1.0 0.00 0.00 0.00 72 1012.2
20260903015217 85 0.0 1.0 0.00 0.00 0.00 71 1012.0
20260903014218 85 203 2.0 3.0 0.00 0.00 0.00 71 1012.0
20260903013217 86 225 3.0 5.0 0.00 0.00 0.00 70 1011.9
20260903012217 86 203 1.0 2.0 0.00 0.00 0.00 70 1011.7
20260903011218 87 0 3.0 4.0 0.00 0.00 0.00 69 1011.5
20260903010217 87 203 3.0 6.0 0.00 0.00 0.00 69 1011.4
20260903005217 87 0 4.0 8.0 0.00 0.00 0.00 68 1011.3
20260903004237 88 180 4.0 5.0 0.00 0.00 0.00 67 1011.1
20260903003237 88 203 3.0 4.0 0.00 0.00 0.00 66 1011.1
20260903002237 88 0 4.0 5.0 0.00 0.00 0.00 65 1011.1
20260903001257 89 0 4.0 8.0 0.00 0.00 0.00 64 1011.1
20260903000218 90 0 6.0 10.0 0.00 0.00 0.00 64 1011.2
20260902235217 90 0 4.0 6.0 0.00 0.00 0.00 63 1011.2
20260902234217 90 0 5.0 8.0 0.00 0.00 0.00 62 1011.3
20260902233217 91 0 6.0 9.0 0.00 0.00 0.00 61 1011.4
20260902232237 92 0 8.0 12.0 0.00 0.00 0.00 60 1011.4
20260902231217 92 0 7.0 10.0 0.00 0.00 0.00 59 1011.5
20260902230217 93 0 6.0 10.0 0.00 0.00 0.00 59 1011.6
20260902225217 93 225 9.0 12.0 0.00 0.00 0.00 58 1011.6
20260902224217 93 0 7.0 9.0 0.00 0.00 0.00 58 1011.7
20260902223257 94 0 7.0 9.0 0.00 0.00 0.00 57 1011.7
20260902222237 94 0 9.0 12.0 0.00 0.00 0.00 56 1011.7
20260902221217 95 203 8.0 11.0 0.00 0.00 0.00 52 1011.7
20260902220217 95 203 7.0 11.0 0.00 0.00 0.00 53 1011.8
20260902215217 96 203 6.0 8.0 0.00 0.00 0.00 53 1011.8
20260902214217 96 225 6.0 9.0 0.00 0.00 0.00 51 1011.9
20260902213237 96 225 5.0 8.0 0.00 0.00 0.00 50 1011.9
20260902212217 96 248 4.0 8.0 0.00 0.00 0.00 53 1011.9
20260902211217 96 203 7.0 12.0 0.00 0.00 0.00 51 1012.0
20260902210217 96 0 10.0 14.0 0.00 0.00 0.00 51 1012.1
20260902205217 96 0 5.0 9.0 0.00 0.00 0.00 52 1012.2
20260902204217 96 0 7.0 11.0 0.00 0.00 0.00 52 1012.2
20260902203217 96 0 9.0 15.0 0.00 0.00 0.00 49 1012.2
20260902202237 97 0 6.0 11.0 0.00 0.00 0.00 50 1012.2
20260902201217 96 0 8.0 10.0 0.00 0.00 0.00 52 1012.2
20260902200217 96 0 9.0 15.0 0.00 0.00 0.00 52 1012.2
20260902195237 96 0 11.0 15.0 0.00 0.00 0.00 52 1012.3
20260902194217 94 0 9.0 17.0 0.00 0.00 0.00 53 1012.4
20260902193217 94 0 5.0 8.0 0.00 0.00 0.00 55 1012.6
20260902192217 94 0 6.0 10.0 0.00 0.00 0.00 52 1012.7
20260902191217 95 0 7.0 12.0 0.00 0.00 0.00 53 1012.7
20260902190217 96 0 6.0 10.0 0.00 0.00 0.00 52 1012.8
20260902185217 95 0 6.0 10.0 0.00 0.00 0.00 54 1012.9
20260902184217 94 0 11.0 16.0 0.00 0.00 0.00 54 1012.8
20260902183237 95 0 5.0 11.0 0.00 0.00 0.00 52 1012.8
20260902182237 95 0 9.0 11.0 0.00 0.00 0.00 53 1012.9
20260902181217 95 0 9.0 14.0 0.00 0.00 0.00 53 1013.1
20260902180217 94 0.0 0.0 0.00 0.00 0.00 53 1013.1
20260902175217 94 0.0 0.0 0.00 0.00 0.00 54 1013.1
20260902174217 94 0.0 0.0 0.00 0.00 0.00 55 1013.1
20260902173217 93 0.0 0.0 0.00 0.00 0.00 56 1013.2
20260902172217 93 0.0 0.0 0.00 0.00 0.00 56 1013.2
20260902171237 92 0.0 0.0 0.00 0.00 0.00 57 1013.3
20260902170217 92 0.0 0.0 0.00 0.00 0.00 57 1013.4
20260902165257 92 0.0 0.0 0.00 0.00 0.00 58 1013.5
20260902164217 91 0.0 0.0 0.00 0.00 0.00 58 1013.6
20260902163217 90 0.0 0.0 0.00 0.00 0.00 60 1013.6
20260902162216 90 0.0 0.0 0.00 0.00 0.00 60 1013.7
20260902161217 90 0.0 0.0 0.00 0.00 0.00 62 1013.7
20260902160216 89 0.0 0.0 0.00 0.00 0.00 63 1013.6
20260902155216 88 0.0 0.0 0.00 0.00 0.00 64 1013.7
20260902154237 88 0.0 0.0 0.00 0.00 0.00 65 1013.7
20260902153217 87 0.0 0.0 0.00 0.00 0.00 66 1013.8
20260902152216 86 0.0 0.0 0.00 0.00 0.00 67 1013.8
20260902151216 85 0.0 0.0 0.00 0.00 0.00 68 1013.9
20260902150236 85 0.0 0.0 0.00 0.00 0.00 70 1013.8
20260902145217 84 0.0 0.0 0.00 0.00 0.00 71 1013.8
20260902144216 84 0.0 0.0 0.00 0.00 0.00 71 1013.7
20260902143216 83 0.0 0.0 0.00 0.00 0.00 71 1013.8
20260902142236 83 0.0 0.0 0.00 0.00 0.00 72 1014.1
20260902141216 83 0.0 0.0 0.00 0.00 0.00 72 1013.9
20260902140216 83 0.0 0.0 0.00 0.00 0.00 73 1014.0
20260902135216 83 0.0 0.0 0.00 0.00 0.00 72 1014.0
20260902134237 82 0.0 0.0 0.00 0.00 0.00 74 1014.1
20260902133216 81 0.0 0.0 0.00 0.00 0.00 76 1013.8
20260902132216 80 0.0 0.0 0.00 0.00 0.00 77 1013.8
20260902131236 79 0.0 0.0 0.00 0.00 0.00 79 1014.0
20260902130236 78 0.0 0.0 0.00 0.00 0.00 80 1014.0
20260902125216 77 0.0 0.0 0.00 0.00 0.00 81 1013.9
20260902124236 77 0.0 0.0 0.00 0.00 0.00 82 1013.8
20260902123216 76 0.0 0.0 0.00 0.00 0.00 82 1014.0
20260902122216 76 0.0 0.0 0.00 0.00 0.00 83 1013.8
20260902121216 76 0.0 0.0 0.00 0.00 0.00 84 1013.7
20260902120216 75 0.0 0.0 0.00 0.00 0.00 84 1013.7
20260902115216 75 0.0 0.0 0.00 0.00 0.00 84 1013.6
20260902114216 75 0.0 0.0 0.00 0.00 0.00 84 1013.7
20260902113256 75 0.0 0.0 0.00 0.00 0.00 84 1013.7
20260902112236 75 0.0 0.0 0.00 0.00 0.00 84 1013.6
20260902111216 75 0.0 0.0 0.00 0.00 0.00 84 1013.6
20260902110216 75 0.0 0.0 0.00 0.00 0.00 84 1013.8
20260902105216 75 0.0 0.0 0.00 0.00 0.00 83 1013.8
20260902104236 75 0.0 0.0 0.00 0.00 0.00 83 1013.8
20260902103236 75 0.0 0.0 0.00 0.00 0.00 83 1013.8
20260902102216 75 0.0 0.0 0.00 0.00 0.00 83 1013.8
20260902101216 75 0.0 0.0 0.00 0.00 0.00 84 1013.8
20260902100216 75 0.0 0.0 0.00 0.00 0.00 84 1013.7
20260902095216 75 0.0 0.0 0.00 0.00 0.00 85 1013.8
20260902094216 75 0.0 0.0 0.00 0.00 0.00 85 1013.8
20260902093216 75 0.0 0.0 0.00 0.00 0.00 85 1013.8
20260902092216 75 0.0 0.0 0.00 0.00 0.00 85 1013.8
20260902091216 75 0.0 0.0 0.00 0.00 0.00 85 1013.6
20260902090216 75 0.0 0.0 0.00 0.00 0.00 86 1013.5
20260902085216 75 0.0 0.0 0.00 0.00 0.00 86 1013.4
20260902084216 76 0.0 0.0 0.00 0.00 0.00 86 1013.5
20260902083216 75 0.0 0.0 0.00 0.00 0.00 86 1013.4
20260902082216 75 0.0 0.0 0.00 0.00 0.00 86 1013.2
20260902081216 75 0.0 0.0 0.00 0.00 0.00 86 1013.4
20260902080215 75 0.0 0.0 0.00 0.00 0.00 86 1013.5
20260902075216 75 0.0 0.0 0.00 0.00 0.00 85 1013.5
20260902074236 76 0.0 0.0 0.00 0.00 0.00 85 1013.4
20260902073215 76 0.0 0.0 0.00 0.00 0.00 84 1013.4
20260902072216 76 0.0 0.0 0.00 0.00 0.00 84 1013.3
20260902071215 76 0.0 0.0 0.00 0.00 0.00 84 1013.3
20260902070216 76 0.0 0.0 0.00 0.00 0.00 84 1013.3
20260902065215 77 0.0 0.0 0.00 0.00 0.00 83 1013.4
20260902064215 77 0.0 0.0 0.00 0.00 0.00 83 1013.5
20260902063216 77 0.0 0.0 0.00 0.00 0.00 82 1013.6
20260902062216 78 0.0 0.0 0.00 0.00 0.00 82 1013.5
20260902061238 78 0.0 0.0 0.00 0.00 0.00 82 1013.6
20260902060218 78 0.0 0.0 0.00 0.00 0.00 81 1013.5
20260902055218 78 0.0 0.0 0.00 0.00 0.00 81 1013.4
20260902054217 79 0.0 0.0 0.00 0.00 0.00 80 1013.2
20260902053218 79 0.0 0.0 0.00 0.00 0.00 80 1013.4
20260902052217 79 0.0 0.0 0.00 0.00 0.00 79 1013.4
20260902051218 79 0.0 0.0 0.00 0.00 0.00 78 1013.4
20260902050215 80 0.0 0.0 0.00 0.00 0.00 77 1013.6
20260902045216 80 0.0 0.0 0.00 0.00 0.00 77 1013.5